Regional Weather Roundup
Issued by NWS

Home | Current Version | Previous Version | Text Only | Print | Product List | Glossary On
Versions: 1 2 3 4 5 6 7 8 9 10 11 12 13 14 15 16 17 18 19 20 21 22 23 24 25 26 27 28 29 30 31 32 33 34 35 36 37 38 39 40 41 42 43 44 45 46 47 48 49 50
000
ASUS42 KKEY 070210
RWRKEY

FLORIDA REGIONAL WEATHER ROUNDUP FOR THE FLORIDA KEYS
NATIONAL WEATHER SERVICE KEY WEST FLORIDA
900 PM EST FRI MAR 06 2015

...SOUTH FLORIDA AND THE KEYS...

CITY           SKY/WX    TMP DP  RH WIND       PRES   REMARKS
FORT MYERS     CLEAR     71  68  90 N12       30.20R
SW REGIONAL AP CLEAR     72  67  84 N5        30.20R
NAPLES         CLOUDY    72  69  90 NW10      30.20R
MIAMI          PTCLDY    76  69  79 SE5       30.18R
WEST KENDALL   CLEAR     74  69  85 CALM      30.19R
HOMESTEAD      CLEAR     73  69  87 NE5       30.18R
MARATHON       CLEAR     76  70  82 NE5       30.17R
BOCA CHICA NAS PTCLDY    74  69  85 N10       30.18R
KEY WEST INTL  CLEAR     74  70  87 N8        30.19R

...INTERNATIONAL WEATHER...

CITY           SKY/WX    TMP DP  RH WIND       PRES   REMARKS
NASSAU BAHAMAS PTCLDY    75  70  83 VRB2      30.19R
CANCUN MEXICO  PTCLDY    79  73  83 NE5       30.15R
COZUMEL MEXICO PTCLDY    75  73  94 E7        30.14R

ADJACENT COASTAL WATERS...

STATION/POSITION TIME  SKY/WX   TEMP    WIND        PRES    WAVE
                                AIR SEA DIR/SP/G            HT/PER
                 (UTC)          (F)     (DEG/KT/KT) (MB)    (FT/S)
PULASKI SHOAL LI 0100            72      10/ 15/ 17 1021.5R
SAND KEY         0150            74      20/ 13/ 14 1021.9R
SOMBRERO KEY     0200            76      50/  6/  7 1022.4R
LONG KEY         0100            77 80   80/  5/  5 1021.9R
MOLASSES REEF    0200            76 76   30/  5/  6 1021.8R
FOWEY ROCKS      NOT AVBL
Buoy 42080       NOT AVBL

$$


USA.gov is the U.S. government's official web portal to all federal, state and local government web resources and services.